When you browse on this site, cookies collect data to enhance your experience and personalize the content and advertising you see.
Visit our Privacy Policy to learn more. By continuing to use the site, you agree to this use of cookies and data.
  • In Italy
  • List of Countries
  • For 7 days
  • Water Temperature
  • Satellite Maps
  • Weather Map
  • Weather Widgets
  • user-avatar
    Login

    Hourly Weather Bedford

    Today, 20 January, Sunday

    Time Temperature Precipitation Wind Pressure Humidity
    00:00 +1°C° 0 mm 1 mps 756 mmHg 91%
    01:00 +1°C° 0 mm 1 mps 756 mmHg 91%
    02:00 +1°C° 0 mm 1 mps 756 mmHg 91%
    03:00 +1°C° 0 mm 1 mps 756 mmHg 91%
    04:00 +1°C° 0 mm 1 mps 757 mmHg 90%
    05:00 0°C° 0 mm 1 mps 757 mmHg 90%
    06:00 0°C° 0 mm 1 mps 757 mmHg 90%
    07:00 +1°C° 0 mm 1 mps 758 mmHg 87%
    08:00 +1°C° 0 mm 1 mps 758 mmHg 85%
    09:00 +1°C° 0 mm 1 mps 759 mmHg 83%
    10:00 +3°C° 0 mm 1 mps 760 mmHg 77%
    11:00 +4°C° 0 mm 1 mps 760 mmHg 71%
    12:00 +5°C° 0 mm 1 mps 760 mmHg 64%
    13:00 +5°C° 0 mm 1 mps 761 mmHg 66%
    14:00 +5°C° 0 mm 1 mps 761 mmHg 67%
    15:00 +5°C° 0 mm 1 mps 761 mmHg 68%
    16:00 +4°C° 0 mm 1 mps 762 mmHg 73%
    17:00 +3°C° 0 mm 1 mps 762 mmHg 78%
    18:00 +2°C° 0 mm 1 mps 763 mmHg 83%
    19:00 +2°C° 0 mm 1 mps 763 mmHg 85%
    20:00 +2°C° 0 mm 1 mps 764 mmHg 87%
    21:00 +2°C° 0 mm 1 mps 764 mmHg 88%
    22:00 +1°C° 0 mm 1 mps 764 mmHg 90%
    23:00 +1°C° 0 mm 1 mps 765 mmHg 92%

    Tomorrow, 21 January, Monday

    Time Temperature Precipitation Wind Pressure Humidity
    00:00 +1°C° 0 mm 1 mps 765 mmHg 93%
    01:00 +1°C° 0 mm 1 mps 765 mmHg 94%
    02:00 +1°C° 0 mm 1 mps 765 mmHg 94%
    03:00 +1°C° 0 mm 1 mps 765 mmHg 95%
    04:00 +1°C° 0 mm 1 mps 765 mmHg 95%
    05:00 +1°C° 0 mm 1 mps 765 mmHg 95%
    06:00 +1°C° 0 mm 1 mps 764 mmHg 95%
    07:00 +1°C° 0 mm 1 mps 765 mmHg 96%
    08:00 +2°C° 0 mm 1 mps 765 mmHg 96%
    09:00 +1°C° 0 mm 2 mps 765 mmHg 96%
    10:00 +2°C° 0 mm 2 mps 764 mmHg 91%
    11:00 +3°C° 0 mm 2 mps 764 mmHg 87%
    12:00 +5°C° 0 mm 2 mps 763 mmHg 82%
    13:00 +4°C° 0 mm 3 mps 762 mmHg 83%
    14:00 +4°C° 0 mm 3 mps 762 mmHg 83%
    15:00 +4°C° 0 mm 4 mps 761 mmHg 84%
    16:00 +3°C° 0 mm 4 mps 760 mmHg 86%
    17:00 +2°C° 0 mm 5 mps 759 mmHg 89%
    18:00 +1°C° 0 mm 5 mps 758 mmHg 91%
    19:00 +2°C° 0 mm 6 mps 757 mmHg 91%
    20:00 +2°C° 0 mm 6 mps 756 mmHg 90%
    21:00 +2°C° 0 mm 7 mps 755 mmHg 90%
    22:00 +2°C° 0.3 mm 7 mps 753 mmHg 89%
    23:00 +2°C° 0.3 mm 8 mps 752 mmHg 87%

    Day after tomorrow, 22 January, Tuesday

    Time Temperature Precipitation Wind Pressure Humidity
    00:00 +2°C° 0.3 mm 8 mps 750 mmHg 86%
    01:00 +2°C° 0.7 mm 7 mps 750 mmHg 84%
    02:00 +2°C° 0.7 mm 5 mps 749 mmHg 82%
    03:00 +1°C° 0.7 mm 4 mps 748 mmHg 80%
    04:00 0°C° 0 mm 4 mps 748 mmHg 82%
    05:00 -1°C° 0 mm 4 mps 747 mmHg 85%
    06:00 -1°C° 0 mm 3 mps 747 mmHg 87%
    07:00 -1°C° 0 mm 3 mps 747 mmHg 88%
    08:00 -1°C° 0 mm 3 mps 747 mmHg 89%
    09:00 -1°C° 0 mm 3 mps 747 mmHg 90%
    10:00 0°C° 0 mm 3 mps 747 mmHg 84%
    11:00 0°C° 0 mm 4 mps 747 mmHg 78%
    12:00 +1°C° 0 mm 4 mps 747 mmHg 73%
    13:00 +1°C° 0.1 mm 4 mps 747 mmHg 74%
    14:00 +1°C° 0.1 mm 4 mps 747 mmHg 75%
    15:00 +2°C° 0.1 mm 3 mps 747 mmHg 76%
    16:00 0°C° 0 mm 4 mps 747 mmHg 79%
    17:00 -1°C° 0 mm 4 mps 747 mmHg 83%
    18:00 -2°C° 0 mm 4 mps 748 mmHg 87%
    19:00 -2°C° 0 mm 4 mps 748 mmHg 87%
    20:00 -3°C° 0 mm 4 mps 748 mmHg 88%
    21:00 -3°C° 0 mm 4 mps 749 mmHg 88%
    22:00 -2°C° 0 mm 3 mps 749 mmHg 89%
    23:00 -2°C° 0 mm 3 mps 749 mmHg 89%

    23 January, Wednesday

    Time Temperature Precipitation Wind Pressure Humidity
    00:00 -2°C° 0 mm 3 mps 749 mmHg 89%
    01:00 -2°C° 0 mm 3 mps 750 mmHg 89%
    02:00 -4°C° 0 mm 3 mps 750 mmHg 89%
    03:00 -4°C° 0 mm 3 mps 750 mmHg 88%
    04:00 -4°C° 0 mm 3 mps 750 mmHg 88%
    05:00 -4°C° 0 mm 3 mps 750 mmHg 88%
    06:00 -4°C° 0 mm 3 mps 751 mmHg 89%
    07:00 -2°C° 0 mm 3 mps 751 mmHg 88%
    08:00 -2°C° 0 mm 2 mps 752 mmHg 87%
    09:00 -2°C° 0 mm 2 mps 752 mmHg 86%
    10:00 +1°C° 0 mm 2 mps 752 mmHg 81%
    11:00 +1°C° 0 mm 3 mps 753 mmHg 76%
    12:00 +2°C° 0 mm 3 mps 753 mmHg 71%
    13:00 +2°C° 0 mm 3 mps 753 mmHg 71%
    14:00 +3°C° 0 mm 2 mps 753 mmHg 71%
    15:00 +4°C° 0 mm 2 mps 753 mmHg 71%
    16:00 +2°C° 0 mm 2 mps 754 mmHg 74%
    17:00 +1°C° 0 mm 2 mps 754 mmHg 78%
    18:00 -1°C° 0 mm 2 mps 754 mmHg 82%
    19:00 -1°C° 0 mm 2 mps 755 mmHg 84%
    20:00 -1°C° 0 mm 2 mps 755 mmHg 86%
    21:00 -1°C° 0 mm 2 mps 755 mmHg 89%
    22:00 -1°C° 0 mm 2 mps 756 mmHg 90%
    23:00 -1°C° 0 mm 2 mps 756 mmHg 91%

    24 January, Thursday

    Time Temperature Precipitation Wind Pressure Humidity
    00:00 -1°C° 0 mm 3 mps 756 mmHg 93%
    01:00 -1°C° 0 mm 3 mps 756 mmHg 92%
    02:00 -1°C° 0 mm 3 mps 756 mmHg 92%
    03:00 -1°C° 0 mm 3 mps 756 mmHg 92%
    04:00 -1°C° 0 mm 2 mps 756 mmHg 92%
    05:00 -1°C° 0 mm 2 mps 756 mmHg 92%
    06:00 -1°C° 0 mm 2 mps 755 mmHg 93%
    07:00 -1°C° 0 mm 2 mps 756 mmHg 92%
    08:00 +1°C° 0 mm 2 mps 756 mmHg 92%
    09:00 +1°C° 0 mm 2 mps 756 mmHg 91%
    10:00 +2°C° 0 mm 2 mps 756 mmHg 88%
    11:00 +4°C° 0 mm 1 mps 756 mmHg 84%
    12:00 +6°C° 0 mm 1 mps 756 mmHg 80%
    13:00 +6°C° 0 mm 1 mps 756 mmHg 82%
    14:00 +6°C° 0 mm 1 mps 756 mmHg 83%
    15:00 +6°C° 0 mm 1 mps 756 mmHg 85%
    16:00 +3°C° 0 mm 0 mps 757 mmHg 87%
    17:00 +2°C° 0 mm 0 mps 757 mmHg 89%
    18:00 +1°C° 0 mm 0 mps 758 mmHg 91%
    19:00 +1°C° 0 mm 0 mps 758 mmHg 92%
    20:00 +1°C° 0 mm 0 mps 759 mmHg 92%
    21:00 0°C° 0 mm 0 mps 760 mmHg 93%
    22:00 0°C° 0 mm 0 mps 760 mmHg 93%
    23:00 0°C° 0 mm 0 mps 760 mmHg 93%

    25 January, Friday

    Time Temperature Precipitation Wind Pressure Humidity
    00:00 0°C° 0 mm 0 mps 760 mmHg 93%
    01:00 +1°C° 0 mm 1 mps 761 mmHg 94%
    02:00 +1°C° 0 mm 1 mps 761 mmHg 94%
    03:00 +1°C° 0 mm 1 mps 761 mmHg 94%
    04:00 +1°C° 0 mm 1 mps 761 mmHg 94%
    05:00 -1°C° 0 mm 2 mps 761 mmHg 94%
    06:00 -1°C° 0 mm 2 mps 762 mmHg 94%
    07:00 +1°C° 0 mm 2 mps 762 mmHg 93%
    08:00 0°C° 0 mm 3 mps 762 mmHg 91%
    09:00 +1°C° 0 mm 3 mps 762 mmHg 89%
    10:00 +2°C° 0 mm 3 mps 762 mmHg 89%
    11:00 +1°C° 0 mm 4 mps 762 mmHg 90%
    12:00 +3°C° 0 mm 4 mps 762 mmHg 90%
    13:00 +3°C° 0 mm 4 mps 762 mmHg 91%
    14:00 +3°C° 0 mm 4 mps 762 mmHg 92%
    15:00 +4°C° 0 mm 4 mps 762 mmHg 93%
    16:00 +4°C° 0 mm 4 mps 762 mmHg 95%
    17:00 +4°C° 0 mm 3 mps 762 mmHg 96%
    18:00 +4°C° 0 mm 3 mps 762 mmHg 97%
    19:00 +4°C° 0 mm 3 mps 762 mmHg 97%
    20:00 +3°C° 0 mm 3 mps 762 mmHg 96%
    21:00 +3°C° 0 mm 3 mps 762 mmHg 96%
    22:00 +3°C° 0 mm 4 mps 762 mmHg 94%
    23:00 +3°C° 0 mm 4 mps 762 mmHg 93%
    Show more